RYR389U LHBP-EBCI

Flight info

Callsign RYR389U
Flight time N/A
Altitude 38000
Route GILEP DCT ZOLKU DCT BEGLA DCT DEXIT DCT EXITI DCT TEKTU DCT TESGA DCT UMUPU T880 ADMUM/N0362F240 T880 BATTY
Aircraft B38M/M-SDE1FGHILORVWXY/HB1

Departure

Time N/A
Airport Budapest Liszt Ferenc International Airport (LHBP)

Arrival

Time 2026-05-01 09:55
Airport Brussels South Charleroi Airport (EBCI)
Time Latitude Longitude Altitude Speed Heading
2026-05-01 09:46 50.58747 5.17147 8008 ft 278 kts 258°
2026-05-01 09:47 50.58463 5.14136 7715 ft 278 kts 258°
2026-05-01 09:47 50.58180 5.11138 7407 ft 277 kts 257°
2026-05-01 09:47 50.57896 5.08147 7108 ft 276 kts 258°
2026-05-01 09:47 50.57613 5.05165 6812 ft 275 kts 258°
2026-05-01 09:48 50.57330 5.02191 6500 ft 275 kts 258°
2026-05-01 09:48 50.57046 4.99226 6189 ft 273 kts 258°
2026-05-01 09:48 50.56763 4.96274 5892 ft 272 kts 258°
2026-05-01 09:48 50.56483 4.93364 5715 ft 265 kts 258°
2026-05-01 09:49 50.56212 4.90544 5601 ft 257 kts 258°
2026-05-01 09:49 50.55948 4.87813 5469 ft 249 kts 258°
2026-05-01 09:49 50.55776 4.86042 5377 ft 244 kts 258°
2026-05-01 09:49 50.55525 4.83439 5239 ft 237 kts 258°
2026-05-01 09:50 50.55279 4.80910 5061 ft 232 kts 258°
2026-05-01 09:50 50.55031 4.78407 4770 ft 230 kts 256°
2026-05-01 09:50 50.54642 4.75988 4475 ft 226 kts 249°
2026-05-01 09:50 50.54124 4.73672 4197 ft 223 kts 245°
2026-05-01 09:51 50.53544 4.71437 3910 ft 218 kts 243°
2026-05-01 09:51 50.52942 4.69278 3636 ft 213 kts 242°
2026-05-01 09:51 50.52339 4.67184 3358 ft 208 kts 242°
2026-05-01 09:51 50.51749 4.65143 3088 ft 203 kts 242°
2026-05-01 09:52 50.51188 4.63201 2847 ft 184 kts 241°
2026-05-01 09:52 50.50680 4.61446 2607 ft 173 kts 241°
2026-05-01 09:52 50.50181 4.59731 2397 ft 173 kts 242°
2026-05-01 09:52 50.49697 4.58059 2157 ft 160 kts 239°
2026-05-01 09:53 50.49259 4.56546 1980 ft 146 kts 240°
2026-05-01 09:53 50.48839 4.55106 1765 ft 144 kts 240°
2026-05-01 09:53 50.48429 4.53700 1571 ft 143 kts 240°
2026-05-01 09:53 50.48013 4.52277 1341 ft 143 kts 243°
2026-05-01 09:54 50.47610 4.50853 1167 ft 143 kts 242°
2026-05-01 09:54 50.47187 4.49399 995 ft 147 kts 240°
2026-05-01 09:54 50.46753 4.47929 751 ft 150 kts 241°
2026-05-01 09:54 50.46328 4.46465 595 ft 140 kts 243°
2026-05-01 09:55 50.45991 4.45307 593 ft 78 kts 244°
2026-05-01 09:55 50.45881 4.44890 598 ft 21 kts 275°
2026-05-01 09:55 50.45946 4.44777 599 ft 0 kts 339°
2026-05-01 09:56 50.45955 4.44773 599 ft 3 kts 343°
2026-05-01 09:56 50.45989 4.44764 599 ft 6 kts
2026-05-01 09:57 50.46025 4.44809 599 ft 8 kts 58°
2026-05-01 09:57 50.46052 4.44894 600 ft 10 kts 66°
2026-05-01 09:57 50.46090 4.45027 598 ft 17 kts 64°
2026-05-01 09:57 50.46147 4.45227 601 ft 22 kts 66°
2026-05-01 09:58 50.46215 4.45457 601 ft 25 kts 65°
2026-05-01 09:58 50.46290 4.45715 600 ft 27 kts 65°
2026-05-01 09:58 50.46365 4.45974 598 ft 23 kts 65°
2026-05-01 09:58 50.46437 4.46222 593 ft 27 kts 65°
2026-05-01 09:59 50.46519 4.46502 592 ft 29 kts 66°
2026-05-01 09:59 50.46587 4.46734 594 ft 18 kts 65°
2026-05-01 09:59 50.46658 4.46803 593 ft 13 kts 13°
2026-05-01 09:59 50.46712 4.46909 592 ft 14 kts 65°
2026-05-01 10:00 50.46753 4.47054 591 ft 10 kts 66°
2026-05-01 10:00 50.46792 4.47087 589 ft 8 kts 341°
2026-05-01 10:00 50.46836 4.47056 587 ft 3 kts 335°
2026-05-01 10:00 50.46849 4.47046 587 ft 1 kts 335°
2026-05-01 10:01 50.46854 4.47043 587 ft 0 kts 335°